This is the latest recevied weather packets stored in our database for station/object OK1CBR-13. If no packets are shown the sender has not sent any weather packets the latest 10 day(s).
| Time | Temp. | Humidity | Pressure | Rain* | Wind** | Luminosity | Snow |
|---|---|---|---|---|---|---|---|
| 1777674453 | 11.11° C | 58% | 1026.8 hPa | - | - | - | - |
| 1777673852 | 11.67° C | 58% | 1026.9 hPa | - | - | - | - |
| 1777673252 | 11.67° C | 58% | 1026.9 hPa | - | - | - | - |
| 1777672652 | 11.67° C | 57% | 1026.8 hPa | - | - | - | - |
| 1777672052 | 12.22° C | 56% | 1026.7 hPa | - | - | - | - |
| 1777671452 | 12.22° C | 55% | 1026.7 hPa | - | - | - | - |
| 1777670852 | 12.78° C | 54% | 1026.7 hPa | - | - | - | - |
| 1777670252 | 12.78° C | 53% | 1026.7 hPa | - | - | - | - |
| 1777669652 | 12.78° C | 53% | 1026.7 hPa | - | - | - | - |
| 1777669052 | 13.33° C | 52% | 1026.6 hPa | - | - | - | - |
| 1777668452 | 13.33° C | 52% | 1026.5 hPa | - | - | - | - |
| 1777667852 | 13.89° C | 52% | 1026.5 hPa | - | - | - | - |
| 1777667252 | 13.89° C | 50% | 1026.5 hPa | - | - | - | - |
| 1777666652 | 14.44° C | 48% | 1026.5 hPa | - | - | - | - |
| 1777666052 | 14.44° C | 48% | 1026.5 hPa | - | - | - | - |
| 1777665452 | 15° C | 48% | 1026.6 hPa | - | - | - | - |
| 1777664852 | 15.56° C | 45% | 1026.3 hPa | - | - | - | - |
| 1777664252 | 16.11° C | 44% | 1026.3 hPa | - | - | - | - |
| 1777663652 | 16.11° C | 44% | 1026.3 hPa | - | - | - | - |
| 1777663052 | 16.67° C | 44% | 1026.3 hPa | - | - | - | - |
| 1777662453 | 17.22° C | 40% | 1026.2 hPa | - | - | - | - |
| 1777661852 | 17.78° C | 38% | 1026.2 hPa | - | - | - | - |
| 1777661252 | 18.33° C | 37% | 1026.1 hPa | - | - | - | - |
| 1777660652 | 18.33° C | 35% | 1026.1 hPa | - | - | - | - |
| 1777660052 | 18.89° C | 34% | 1026 hPa | - | - | - | - |
* Rain since midnight (hover to see other rain measurements)
** Current wind speed in m/s (hover to see current wind gust speed)